GFSSGP_250_rhum_246.txt.gz
RH
13 13 12 14 14 16 17 15 16 21 24 25 32 32 39 53 66 71 75 70 54 48 37 28 46 57 67 85 74 70 56 42 26 20 17 14 13 14 15 17 17 14 12 12 11 15 21 21 17
15 15 15 15 15 19 19 19 18 28 22 46 45 26 35 42 50 54 52 64 92 59 55 32 79 99 96 99 72 82 69 34 16 14 14 13 14 14 15 14 12 13 14 13 13 18 26 30 26
16 15 16 19 16 18 21 21 16 23 19 29 23 22 22 22 40 57 71 63 96 99 96 44 84 95 87 83 97 95 68 26 17 13 14 14 15 15 15 15 16 23 21 20 25 23 31 32 28
21 18 15 16 22 19 20 26 22 21 19 31 34 38 26 23 26 61 49 51 79 100 100 100 82 66 43 73 85 68 47 45 17 16 18 17 18 20 19 19 18 25 30 34 32 34 32 30 24
29 25 18 15 18 20 19 23 26 23 18 17 21 26 38 30 23 30 15 19 52 96 75 71 45 61 99 88 78 72 60 32 24 31 30 32 33 26 21 21 22 31 52 44 38 34 30 22 27
41 32 22 17 18 20 22 20 20 24 22 19 18 18 24 26 21 24 16 18 30 35 44 32 48 95 82 83 78 63 30 24 21 26 31 35 37 34 31 31 30 44 49 41 37 27 31 32 30
51 27 30 23 18 20 22 22 23 22 24 22 18 31 38 31 23 26 18 22 36 48 50 40 82 59 56 53 41 25 25 22 27 31 30 22 28 30 26 31 46 39 34 33 32 36 41 39 38
68 34 26 29 22 19 20 20 22 23 23 25 20 17 21 22 34 41 23 17 34 39 50 83 62 39 31 24 24 25 21 22 23 26 26 18 28 29 32 39 44 31 34 41 44 50 46 39 26
94 53 45 47 36 21 22 22 22 25 25 28 26 18 17 17 34 37 29 26 22 23 60 75 52 40 30 26 26 26 25 22 23 26 35 22 18 23 29 41 34 43 42 45 58 74 58 39 28
71 57 62 61 45 36 24 29 20 25 22 22 31 21 21 15 20 44 43 40 43 33 22 42 56 52 33 32 27 28 28 27 25 28 49 40 20 19 28 41 44 48 62 81 92 92 48 35 30
86 58 52 72 45 40 34 26 31 22 27 23 23 33 24 23 18 30 56 74 61 55 62 32 50 38 30 27 32 34 34 36 32 31 49 49 28 37 60 42 34 78 100 99 83 75 40 36 31
83 75 60 58 60 43 41 28 31 28 24 25 25 22 28 30 20 18 22 34 49 97 100 95 66 79 61 48 39 40 33 29 29 33 44 48 51 51 52 38 34 51 85 100 98 66 46 45 60
70 79 90 67 60 64 42 31 35 31 38 38 28 26 25 34 32 22 16 18 18 32 72 87 100 100 100 87 65 62 39 34 34 43 40 37 38 49 46 41 48 40 41 76 98 84 52 58 84
99 56 100 77 61 68 72 43 33 32 40 44 37 31 27 27 32 33 29 27 21 22 52 43 82 97 92 97 86 69 46 36 28 39 37 36 45 66 60 43 67 64 43 82 76 85 66 77 87
100 72 100 79 74 80 73 55 47 40 39 54 46 44 37 29 29 27 39 24 25 20 20 26 52 64 63 71 76 78 69 51 50 32 30 35 54 89 80 66 92 78 55 69 98 92 83 80 85
100 95 88 70 76 100 83 57 68 54 49 64 49 38 52 46 30 28 32 37 28 23 20 22 23 36 40 54 56 81 71 81 75 60 39 38 62 100 86 100 99 63 72 100 100 98 83 88 63
100 98 100 90 78 100 100 86 62 79 62 53 56 49 43 60 46 31 32 30 41 32 25 26 27 28 34 46 56 63 81 100 93 55 47 46 53 90 100 100 90 68 59 52 56 60 68 76 66
77 100 100 88 85 100 100 96 84 71 81 53 64 61 43 45 59 40 37 36 37 40 37 31 27 31 27 28 30 33 52 79 71 53 40 41 48 56 73 94 94 83 58 57 55 59 69 72 50
72 68 99 92 94 100 100 100 100 63 95 68 63 76 56 37 50 54 41 43 39 43 49 44 44 41 36 30 27 24 29 45 47 44 35 41 45 43 64 88 80 64 64 59 50 52 54 48 46
100 100 100 100 99 98 100 100 100 77 66 68 58 100 76 49 49 41 40 41 35 45 43 43 48 49 45 42 32 28 27 28 29 34 37 42 50 54 54 78 83 76 84 73 57 52 48 53 51
100 100 100 100 100 100 100 100 100 95 62 77 65 100 88 78 60 50 44 38 38 37 47 54 48 49 49 52 42 43 42 41 36 36 38 45 55 58 67 83 91 97 93 94 65 62 73 95 95
99 100 100 100 100 100 100 100 100 100 95 99 87 95 98 91 65 66 52 38 36 46 36 40 51 53 53 49 44 49 48 45 42 46 47 45 48 68 76 93 100 100 100 98 58 69 64 74 66
100 100 98 100 100 99 98 99 100 100 100 100 100 100 100 86 91 88 58 46 39 54 51 34 35 49 62 55 47 47 49 49 58 62 65 54 59 85 70 99 74 52 38 33 62 64 70 62 53
100 98 91 100 100 64 100 74 100 100 100 100 100 100 100 100 100 80 68 62 41 40 59 55 39 46 50 80 89 86 73 60 57 54 54 55 79 77 93 86 100 87 56 57 72 70 59 41 44
98 100 90 80 98 100 94 79 100 100 100 100 100 100 100 97 99 88 69 67 58 43 44 66 55 54 47 43 61 82 89 78 61 55 56 57 63 53 47 63 68 57 53 66 58 58 58 72 65
100 74 71 94 89 100 98 100 100 100 100 100 100 100 100 90 80 81 86 58 53 62 59 79 84 85 68 55 51 74 96 100 91 71 58 56 66 62 60 61 58 47 57 64 66 87 87 95 66
100 93 100 84 86 64 99 100 100 100 100 98 98 100 100 95 87 100 99 77 100 97 89 94 100 100 98 82 60 70 79 95 100 100 100 100 100 100 85 84 80 77 84 85 85 100 100 86 97
100 100 98 71 54 73 69 100 100 100 100 98 100 100 99 84 79 100 100 86 100 98 96 99 99 100 100 100 90 74 79 82 91 100 100 100 100 100 100 100 100 100 100 100 100 100 100 98 84
100 96 98 96 76 68 69 100 100 100 100 100 100 100 98 75 77 78 100 99 98 90 99 100 100 100 100 100 100 100 96 97 81 53 87 95 100 100 100 100 100 100 100 100 100 100 100 100 100
78 70 82 87 78 97 54 94 90 100 100 100 100 100 100 79 80 50 90 96 91 84 100 100 100 89 94 92 100 100 90 79 84 99 99 83 82 100 100 100 100 100 100 100 100 100 100 100 100

GFSSGP_250_rhum_249.txt.gz
RH
22 17 14 14 14 14 14 16 17 18 18 22 40 43 28 29 44 53 50 46 42 49 45 45 30 60 78 82 79 69 56 51 44 28 20 16 13 11 12 13 15 13 12 12 12 10 10 10 11
25 19 16 15 14 14 15 16 18 19 17 20 25 23 22 25 23 46 58 63 60 65 58 38 46 50 100 96 100 91 70 64 58 25 15 12 12 12 12 13 13 13 12 13 13 13 12 13 15
29 22 20 17 16 14 15 17 17 17 17 17 20 22 21 21 20 22 41 30 29 80 82 65 83 60 96 97 94 83 86 78 50 47 16 14 15 14 14 15 16 16 16 17 18 16 17 17 20
39 37 24 28 19 16 14 18 19 19 19 18 16 15 15 20 25 23 24 17 20 34 99 78 98 100 94 59 69 84 81 45 32 24 16 21 24 22 18 18 19 25 28 24 24 25 22 22 17
48 41 32 31 33 23 16 15 18 19 20 20 17 17 17 19 26 29 25 19 19 25 71 97 95 68 91 94 87 75 62 51 40 27 29 38 39 37 30 24 26 34 38 44 33 29 21 19 18
45 35 34 33 34 25 21 17 15 18 18 19 20 21 18 15 21 33 37 20 20 29 36 43 35 53 91 62 66 75 59 35 26 31 33 29 23 20 26 26 34 37 53 37 33 24 21 27 28
66 36 42 39 34 28 28 19 18 20 18 17 18 21 24 18 17 19 29 27 17 27 37 55 48 63 48 46 47 50 40 24 22 24 28 23 17 24 22 22 29 46 40 33 32 30 30 37 39
95 57 54 53 34 34 38 26 20 21 29 19 17 21 23 22 20 16 18 24 25 20 22 44 56 42 39 24 21 22 23 22 22 22 25 25 16 20 20 28 41 41 28 38 39 51 45 46 50
95 63 44 83 49 46 41 34 25 26 24 30 21 20 22 23 23 21 16 23 26 27 30 26 30 38 36 24 24 23 24 23 20 21 23 30 27 16 18 23 30 33 35 39 48 63 60 60 47
100 89 59 74 64 45 43 39 38 32 33 33 29 28 24 23 26 26 19 25 26 35 36 45 49 42 47 41 27 27 25 25 24 21 23 31 34 33 22 30 46 41 34 42 71 69 58 59 46
99 100 67 65 78 45 59 55 36 42 44 38 41 27 34 32 24 28 24 20 18 21 56 69 80 81 67 60 56 46 38 37 29 20 23 28 34 39 41 40 46 31 34 38 81 93 83 62 44
98 95 100 92 65 73 60 68 62 50 45 59 39 43 30 28 30 25 26 29 23 21 21 29 81 97 87 94 93 89 71 63 40 24 19 27 31 33 40 45 39 33 45 45 56 100 94 73 60
100 100 100 90 71 72 74 83 77 74 69 49 58 39 46 32 28 34 24 25 35 31 25 24 25 59 76 97 96 97 91 92 66 30 23 31 26 28 30 56 58 51 45 59 59 40 71 95 84
86 100 100 100 85 98 79 59 99 83 85 76 67 49 35 51 30 29 28 22 29 38 33 27 22 18 29 59 59 65 77 100 87 61 52 27 23 25 30 70 69 68 64 81 46 44 41 58 68
66 100 86 100 100 100 100 47 100 100 88 85 60 44 37 35 46 33 33 28 22 27 38 40 31 24 24 24 33 44 49 59 77 79 92 77 40 32 38 57 81 88 92 72 46 56 55 58 64
79 60 100 89 77 87 100 77 96 99 100 100 81 52 42 36 70 51 45 33 26 22 25 38 49 41 28 27 31 27 25 33 53 64 94 98 54 38 42 43 72 84 98 73 67 72 53 64 76
90 78 79 100 100 99 87 100 83 73 100 100 81 98 76 58 68 69 50 44 28 24 21 26 36 51 57 39 34 34 37 30 26 35 43 55 56 40 36 38 39 59 66 66 92 70 64 57 47
100 100 100 100 100 100 100 100 88 82 100 100 95 89 100 88 85 85 67 54 42 27 24 25 27 35 44 59 52 44 40 36 33 28 29 54 51 39 40 39 41 44 49 59 57 72 84 72 50
87 96 100 100 100 100 100 100 100 100 100 100 100 92 99 94 100 96 81 74 54 40 33 30 28 27 28 44 49 50 47 45 44 38 34 32 35 39 44 42 47 48 54 63 77 89 91 84 71
97 90 84 96 100 100 100 100 100 100 100 100 100 100 91 100 100 94 100 100 77 53 44 38 36 34 29 39 46 56 56 39 34 33 32 41 46 45 60 66 96 78 71 83 100 100 100 100 96
100 91 80 76 100 100 100 100 100 100 100 100 80 94 92 100 100 79 97 100 98 66 51 48 42 46 41 31 35 56 73 70 54 44 48 49 52 48 61 81 100 99 87 90 100 88 87 100 100
100 98 91 91 98 100 100 100 100 100 100 100 98 90 88 100 96 99 66 82 100 88 63 55 52 56 63 43 36 34 56 88 80 81 81 69 58 63 62 60 86 100 99 100 93 82 72 52 44
100 100 100 100 90 91 100 100 100 100 100 100 100 98 95 98 85 100 94 74 100 100 100 83 77 83 88 74 55 56 42 46 89 99 98 95 83 77 66 66 92 100 100 100 100 96 74 57 35
100 100 100 100 93 90 100 100 100 100 100 100 100 100 96 90 89 100 100 100 100 100 100 100 100 96 97 95 65 62 66 56 47 42 60 82 90 84 100 73 94 77 67 62 98 100 57 66 68
90 94 100 96 99 98 100 95 100 100 100 100 100 98 99 100 81 100 97 100 100 100 100 100 98 100 82 75 93 71 63 67 67 52 46 44 44 48 57 67 71 72 79 91 83 78 67 68 67
100 81 84 100 100 97 88 97 100 100 100 100 97 100 100 100 89 85 91 100 100 100 100 100 99 100 100 100 100 99 100 97 90 78 59 51 46 50 37 67 89 100 100 100 95 93 95 98 90
100 79 84 86 84 88 99 100 100 100 100 100 100 100 95 72 100 100 100 98 98 100 100 100 100 100 100 100 100 100 98 100 100 100 100 94 80 76 71 88 98 100 100 95 94 100 100 100 99
100 100 95 100 100 100 98 87 80 88 100 100 100 100 95 72 98 96 83 100 97 100 100 100 100 100 98 100 100 100 99 83 66 74 100 100 100 100 91 86 93 100 100 100 100 100 100 100 100
100 86 88 96 93 84 83 72 100 93 82 81 100 100 100 90 99 92 59 76 77 86 99 100 100 100 100 100 100 100 100 90 69 65 66 100 100 100 100 100 100 100 100 100 100 90 88 88 99
100 77 70 66 72 98 75 61 100 100 100 88 98 100 100 92 100 97 55 70 56 78 51 100 100 100 100 100 100 100 100 99 74 68 50 47 100 100 100 95 80 66 100 100 100 100 100 100 97

GFSSGP_250_rhum_252.txt.gz
RH
26 21 17 13 15 15 13 15 16 16 16 16 19 31 30 24 20 24 40 36 39 39 44 50 52 31 43 58 57 92 100 84 42 43 31 22 16 13 12 12 13 14 13 12 12 11 10 12 12
24 28 26 19 16 16 15 14 15 16 17 16 15 16 21 22 27 26 30 32 18 34 67 90 86 76 42 93 100 100 97 84 70 64 48 45 13 11 11 11 12 13 13 12 13 13 14 13 15
28 24 32 28 31 20 16 15 16 15 16 17 16 16 16 16 20 22 25 22 14 34 78 84 100 100 88 95 100 63 67 89 83 56 56 21 14 16 15 14 14 15 14 15 16 17 15 18 19
48 30 40 36 29 32 24 20 20 18 16 17 19 17 16 15 12 16 20 22 16 15 42 82 76 97 80 95 61 83 85 81 55 39 37 18 20 23 22 22 20 20 26 23 19 18 20 21 14
84 58 35 31 22 27 32 30 28 23 19 17 18 19 17 19 16 14 22 34 21 22 23 45 98 95 62 48 59 65 78 59 49 38 30 28 25 23 21 23 26 26 38 26 20 31 24 16 15
70 91 54 38 26 24 29 27 31 31 34 26 21 19 21 23 19 18 18 22 22 20 24 39 39 41 30 52 45 52 66 52 47 28 27 29 26 17 15 23 28 31 40 41 33 26 21 22 21
42 100 89 48 38 32 25 34 34 33 29 37 30 28 20 21 23 22 21 20 27 24 21 26 34 31 34 29 32 40 35 29 25 24 22 25 24 18 22 21 22 25 31 47 33 30 34 37 37
36 93 78 91 58 31 34 35 47 44 44 31 32 33 31 21 22 26 24 19 21 30 38 32 28 33 35 31 22 22 22 22 24 25 22 22 26 19 16 20 23 33 37 39 34 42 45 56 51
66 100 100 100 83 44 38 36 41 55 58 36 28 32 35 32 22 20 26 29 26 18 19 44 54 50 55 40 32 30 26 24 28 26 22 20 23 28 20 17 19 25 37 32 35 40 51 64 56
100 98 100 100 100 68 48 46 32 78 73 65 38 25 25 42 33 25 19 22 32 33 28 22 26 63 79 73 68 69 49 45 34 38 32 25 24 33 30 26 23 38 41 36 38 47 55 63 68
79 89 94 96 100 92 56 64 34 52 60 81 66 35 32 33 48 48 31 20 20 30 40 34 26 30 70 87 84 83 82 78 69 59 38 26 25 29 32 33 37 43 39 31 39 47 58 61 80
80 79 72 100 100 100 88 75 52 35 46 69 86 32 38 50 48 61 51 29 21 18 29 42 36 29 27 55 84 98 100 89 85 87 81 47 25 32 28 27 31 47 47 50 43 58 78 54 63
100 82 76 88 100 55 71 70 72 71 56 67 96 76 40 42 58 75 63 43 28 20 18 30 43 46 36 24 25 46 59 59 64 74 82 81 52 41 30 24 24 36 45 55 58 59 78 57 49
100 100 94 91 98 80 83 81 86 87 94 66 100 80 68 46 52 72 80 61 47 29 19 19 23 42 57 51 35 28 29 32 40 49 62 83 80 80 70 37 28 28 42 46 56 74 87 64 58
100 100 100 92 85 80 78 100 100 100 100 90 84 97 90 66 52 55 70 83 66 46 29 21 21 23 38 56 58 47 39 35 37 30 36 58 57 83 89 59 35 32 34 38 38 54 69 59 63
95 100 100 100 100 71 91 100 100 100 100 100 100 100 100 74 74 52 67 80 79 61 47 33 24 22 23 30 49 52 47 50 47 43 37 33 36 75 73 53 43 37 34 34 38 39 48 44 53
93 87 100 100 100 100 100 100 92 100 98 100 100 100 99 50 45 43 100 82 87 83 61 47 33 27 25 25 30 44 47 50 62 57 49 48 42 44 74 62 40 45 45 40 44 46 46 49 63
56 79 82 100 100 100 100 100 100 99 94 100 100 100 100 70 52 32 69 100 92 87 85 70 46 34 34 28 28 31 42 52 56 56 60 65 62 63 65 68 60 54 61 64 88 66 62 67 87
70 74 72 76 100 100 100 100 100 100 100 100 100 100 100 100 69 28 40 98 100 100 99 96 63 47 48 40 31 32 32 37 46 56 65 68 68 70 76 80 84 70 72 93 99 100 79 80 96
96 63 42 42 77 100 100 100 100 100 100 71 95 100 100 100 99 69 48 42 100 100 100 100 99 78 70 71 53 39 29 30 31 34 41 54 58 66 77 83 79 74 78 99 100 100 100 100 73
76 97 58 41 53 100 100 100 100 100 100 100 99 100 97 100 100 89 88 61 74 100 100 100 100 98 94 80 81 65 42 28 26 30 32 34 48 53 54 62 60 62 74 83 100 100 100 100 98
74 94 75 89 64 99 100 100 100 100 100 100 100 100 88 100 100 100 100 92 80 96 95 100 100 100 100 100 87 84 71 46 28 25 25 28 30 35 44 54 62 82 100 100 100 100 100 100 100
79 68 71 83 53 95 100 96 100 100 100 100 100 100 100 100 88 95 100 92 61 50 70 83 100 100 100 100 100 100 100 89 69 53 40 33 48 53 33 27 30 92 99 100 100 100 100 100 100
99 100 100 96 53 69 100 88 98 100 100 100 100 100 100 98 100 100 100 100 86 54 42 66 72 100 100 100 100 100 100 100 100 100 100 99 82 81 90 70 41 37 48 59 78 98 100 100 100
98 100 100 90 71 41 99 71 94 100 94 100 100 100 98 100 100 99 100 100 87 70 74 74 68 100 100 100 100 100 100 100 100 100 100 100 100 82 62 100 93 75 59 50 46 50 51 84 100
100 100 95 82 77 70 62 78 55 95 100 90 100 100 100 100 99 100 100 80 68 88 74 89 67 53 91 90 100 100 100 100 100 100 100 100 60 45 35 47 93 100 100 97 76 64 51 59 46
100 100 100 99 87 73 56 50 65 74 100 100 95 89 90 100 100 100 97 98 100 97 90 56 54 51 72 98 99 100 100 100 100 100 100 100 83 62 57 45 42 92 100 100 85 72 73 79 68
100 100 98 94 79 80 55 53 94 100 100 99 89 96 100 100 86 94 100 100 100 98 89 79 57 77 62 100 100 100 100 100 100 100 100 100 100 90 74 65 34 27 42 100 85 97 100 100 100
100 100 100 100 99 94 90 83 96 61 92 100 88 98 100 100 100 100 100 100 95 96 66 89 91 100 100 100 100 100 100 100 98 94 87 97 100 100 94 88 81 59 49 60 96 98 100 100 100
100 100 100 100 81 100 88 66 80 74 100 100 100 95 98 100 99 92 91 92 84 99 71 62 66 76 100 90 100 100 100 100 100 100 100 100 91 100 91 100 100 74 78 78 95 87 94 78 100

GFSSGP_250_rhum_255.txt.gz
RH
38 22 21 19 22 22 22 24 22 15 17 17 17 17 16 16 22 26 35 35 38 34 30 51 61 52 38 29 41 70 86 100 100 79 40 40 28 20 12 12 11 12 13 12 12 11 11 11 12
72 44 23 21 23 27 25 28 24 26 22 19 19 18 17 16 17 21 20 22 16 14 21 90 92 92 79 83 61 77 78 55 85 92 78 68 58 30 14 13 13 13 14 15 14 14 15 14 16
39 60 28 24 22 27 26 31 35 22 26 26 21 18 18 18 14 14 22 17 16 14 13 42 74 88 100 100 91 100 70 68 75 68 55 50 32 15 16 18 16 14 14 14 16 16 17 17 20
44 58 42 25 33 23 24 35 37 30 22 27 29 22 16 17 17 15 15 16 18 18 20 47 78 75 96 100 73 59 42 44 48 40 42 44 24 19 18 19 21 20 20 21 21 22 20 22 19
68 40 94 40 38 33 24 24 32 44 37 23 21 27 28 18 17 20 17 20 22 23 18 19 22 44 59 27 38 43 30 33 38 47 34 24 22 20 17 14 14 19 23 24 22 19 24 19 20
100 62 89 97 79 42 22 27 31 34 46 42 22 24 27 36 23 17 19 18 20 27 28 22 24 23 28 33 41 22 20 26 29 24 24 24 22 19 17 14 14 16 18 19 19 20 23 22 27
100 68 62 100 51 87 41 26 25 25 37 49 24 26 32 35 45 30 17 18 20 19 18 35 39 30 34 34 27 23 23 28 23 22 21 21 20 20 21 15 17 16 17 22 25 22 25 31 34
91 80 69 100 75 100 78 24 26 32 24 53 47 27 25 34 42 50 34 18 18 24 27 26 25 41 57 61 42 23 27 34 25 25 24 24 20 18 21 19 16 17 19 25 31 29 29 34 45
83 75 80 100 84 100 100 37 21 39 35 25 96 36 26 23 34 52 53 36 20 16 23 32 31 29 40 59 79 68 66 66 41 36 37 33 31 25 22 28 24 18 22 32 45 41 35 43 59
92 100 99 99 97 94 97 56 31 49 53 27 44 58 64 24 27 33 42 54 40 23 17 23 34 34 32 39 56 73 82 86 86 81 69 71 58 43 26 32 32 35 36 37 42 32 37 44 52
93 100 99 94 100 96 100 71 61 85 76 50 26 90 90 33 21 37 40 56 49 42 27 19 21 30 36 33 32 52 74 94 100 98 94 87 95 84 53 30 35 30 33 48 48 40 34 43 61
100 100 100 100 100 100 97 92 80 100 100 74 50 43 100 84 30 29 57 70 65 58 46 30 20 20 24 36 41 32 31 51 67 74 63 84 96 90 69 55 36 31 29 38 60 71 67 49 55
100 100 100 100 100 100 100 78 74 100 100 100 87 52 74 86 64 24 32 81 81 71 67 52 30 23 20 23 29 37 42 34 34 35 35 37 61 87 79 73 68 60 52 40 40 55 59 74 68
73 70 97 100 100 100 99 95 97 100 96 99 93 76 98 33 91 28 27 70 100 87 75 73 54 34 28 21 22 26 35 43 43 44 42 40 35 46 74 84 92 100 79 48 40 38 46 62 74
53 55 44 74 100 100 100 100 100 100 100 100 82 89 99 65 100 65 26 36 56 100 100 83 74 49 36 30 23 22 22 28 42 51 53 51 46 45 38 43 82 83 74 58 56 40 38 38 44
60 52 48 35 78 95 100 100 100 100 100 100 100 98 100 93 80 87 38 22 32 48 100 100 87 60 46 42 29 24 22 20 25 34 38 48 58 61 54 43 42 59 86 87 60 54 45 50 57
100 100 100 75 58 74 78 100 100 100 100 100 100 100 100 100 87 99 100 67 45 25 60 100 100 87 70 61 50 36 27 24 23 23 27 36 45 53 57 48 48 51 56 68 63 60 67 86 86
46 91 100 100 58 73 94 90 79 100 100 100 100 100 94 100 90 100 94 100 79 54 22 38 100 100 91 83 76 73 53 33 27 25 21 24 29 38 41 41 46 44 49 50 56 56 69 84 74
63 70 100 99 99 69 52 81 65 100 100 100 100 100 100 100 100 100 87 100 74 85 68 32 29 71 100 100 98 87 80 69 43 30 24 24 25 28 31 35 38 41 44 48 47 51 61 64 89
44 79 64 91 54 51 48 48 62 62 98 100 100 100 100 100 100 100 86 100 83 78 76 64 43 24 35 95 100 100 96 88 78 64 34 29 31 33 30 27 30 32 33 39 50 66 63 95 100
56 53 74 99 100 85 73 64 76 62 82 100 100 100 100 100 100 100 100 100 78 98 96 90 72 44 37 64 100 100 100 100 100 97 86 57 38 42 49 58 76 84 69 38 49 55 71 87 92
76 64 53 52 83 71 62 84 68 64 47 64 100 100 100 89 100 100 100 100 98 100 100 100 76 42 41 71 93 100 100 100 100 100 100 98 91 87 76 71 84 74 95 90 66 54 49 48 45
78 75 66 60 56 59 62 56 84 62 51 47 56 99 100 100 100 100 100 91 99 97 89 100 97 57 36 49 57 100 100 100 100 100 100 100 100 100 100 67 84 47 55 100 100 96 91 92 68
100 91 95 99 87 64 82 92 84 95 58 70 49 47 90 100 100 97 100 100 100 99 95 100 96 79 76 52 39 56 96 98 100 100 100 100 100 100 100 100 87 44 38 58 96 100 100 100 100
75 83 94 89 85 98 100 93 75 88 94 100 80 78 71 100 98 55 87 100 100 100 100 100 100 100 100 73 44 43 52 97 100 100 100 100 100 100 100 100 100 85 56 56 49 39 46 82 81
100 99 100 86 100 100 100 100 100 100 99 100 99 89 66 95 87 53 98 100 100 100 97 97 100 100 95 88 55 50 53 71 100 100 100 100 100 100 100 100 100 100 99 83 73 65 48 41 50
100 99 92 100 100 99 94 95 100 100 100 100 100 100 91 79 88 65 98 68 98 93 100 100 100 100 100 94 59 46 48 66 70 100 98 96 97 100 100 100 100 100 100 100 99 91 74 70 69
97 100 100 100 100 100 88 98 97 100 100 100 100 100 99 99 94 82 100 68 100 93 99 100 100 100 100 100 98 74 74 86 98 100 100 100 100 100 100 100 92 83 97 100 100 100 96 86 79
100 100 100 100 100 85 98 100 100 100 100 100 100 100 100 100 100 97 100 81 92 100 100 100 100 100 100 100 100 96 97 100 92 90 100 100 100 100 100 100 100 93 96 99 98 100 100 100 100
100 100 100 99 88 100 100 86 100 100 100 100 100 100 100 100 100 100 100 100 100 100 100 100 100 100 100 100 100 100 100 100 100 100 100 100 100 100 100 100 100 100 81 96 100 100 100 100 100

GFSSGP_250_rhum_258.txt.gz
RH
58 45 40 22 20 17 15 22 37 20 20 20 19 15 18 18 14 19 18 20 21 16 18 24 57 66 42 35 45 51 53 66 49 64 96 77 55 53 37 25 12 11 11 11 10 12 12 11 12
87 86 83 45 60 25 17 22 33 22 20 19 22 31 18 17 18 15 14 14 16 13 13 16 80 82 55 41 85 96 72 57 53 67 89 86 59 51 27 16 16 15 14 13 13 13 13 15 16
100 98 72 63 61 38 21 18 22 35 25 19 21 25 36 25 15 16 15 15 15 13 14 18 48 79 90 100 100 62 74 40 26 36 43 44 45 32 21 18 18 20 17 16 16 16 16 19 18
98 100 87 95 29 66 22 17 16 26 35 52 18 21 23 33 32 16 15 15 15 17 21 15 22 44 37 32 32 37 39 20 21 23 17 19 20 19 17 16 14 14 21 26 21 19 21 21 19
52 96 100 100 68 97 46 24 20 28 20 54 29 31 21 19 32 35 19 14 16 16 17 21 21 19 20 28 29 37 20 19 24 23 22 20 20 19 16 16 14 12 13 14 18 17 19 20 18
49 54 75 68 100 100 88 59 29 39 26 18 27 26 50 16 20 27 27 27 15 16 19 18 20 28 33 39 36 28 20 24 29 27 25 24 24 21 18 18 21 14 13 14 16 20 18 20 27
63 54 65 71 100 100 100 99 58 52 67 30 20 23 65 27 18 20 23 34 37 22 14 17 21 21 22 41 61 46 22 30 48 41 35 34 30 27 23 20 22 24 16 17 20 23 19 22 27
100 82 100 100 68 85 100 98 100 71 99 65 33 28 50 61 32 17 16 21 29 38 32 18 16 20 24 24 32 51 78 80 79 75 52 48 56 39 31 25 22 30 31 21 22 26 31 32 29
68 100 100 100 100 99 100 100 100 57 97 96 72 42 70 80 50 25 21 19 28 26 36 39 22 16 18 22 26 29 37 54 70 84 95 88 78 71 50 28 25 29 34 39 40 39 39 38 29
100 100 99 100 66 100 99 99 87 60 96 100 86 79 67 98 73 42 32 24 25 39 30 44 41 25 19 20 25 28 31 40 59 78 80 68 70 80 89 53 35 28 35 31 32 37 41 41 38
74 76 91 100 100 100 100 100 95 88 85 100 53 97 39 100 100 65 39 33 38 61 60 57 46 40 28 20 18 24 30 30 29 30 33 37 44 55 71 78 66 40 37 35 33 27 34 45 60
100 92 79 88 79 77 96 100 93 100 100 98 68 100 47 93 100 95 44 28 32 49 53 84 74 52 44 34 23 18 18 24 34 36 38 38 35 33 34 60 71 61 52 67 57 40 32 34 54
100 100 76 73 61 53 57 63 100 100 100 96 100 100 62 61 100 100 84 42 38 39 58 59 85 78 61 53 46 26 21 19 22 25 30 39 44 44 43 38 46 65 75 85 98 85 38 35 40
96 100 96 64 73 60 83 75 64 99 98 100 100 100 70 95 100 100 100 95 67 62 41 74 72 84 80 68 63 49 28 23 21 20 20 25 36 43 47 52 51 40 43 65 77 75 60 49 40
63 72 65 63 100 100 100 100 93 60 85 100 92 100 98 100 88 48 100 100 96 85 66 38 80 78 88 85 76 74 62 38 27 24 20 18 22 24 31 43 46 47 40 38 46 55 66 50 44
55 59 50 50 94 97 100 99 100 83 53 79 86 100 96 100 100 78 83 99 100 100 95 75 55 84 96 73 84 89 84 75 56 37 28 23 20 20 20 23 29 37 44 47 48 52 52 49 46
56 46 44 50 54 71 61 62 100 99 75 53 65 80 99 100 99 86 100 100 97 99 100 100 82 68 100 100 100 100 97 93 88 76 62 43 27 25 22 21 20 22 26 31 34 38 43 52 48
83 80 63 43 40 42 40 73 97 100 97 70 38 43 52 99 100 100 100 88 90 90 100 95 100 88 84 100 80 97 100 100 98 97 96 82 64 42 31 26 23 23 29 46 55 30 30 44 54
90 73 66 90 68 48 52 31 34 45 68 50 51 42 53 67 100 100 100 100 88 90 100 85 100 100 100 64 35 31 40 74 100 100 100 100 100 100 80 56 42 37 35 56 70 72 69 60 46
85 82 72 80 98 73 52 52 47 74 96 100 100 45 61 63 59 97 100 100 100 96 94 85 99 100 100 100 67 37 25 32 56 83 100 100 100 100 100 100 96 86 67 67 63 54 68 64 55
99 90 89 98 99 96 82 80 60 47 41 58 90 66 52 74 55 48 67 100 100 100 100 99 87 100 86 100 97 77 57 53 44 72 76 99 100 100 100 100 100 100 100 79 82 45 34 40 82
95 100 100 100 86 82 100 78 82 83 51 45 45 57 60 68 69 50 45 87 100 100 100 87 98 100 97 100 100 100 100 99 74 56 52 54 100 100 100 100 100 100 100 100 100 85 46 44 43
76 97 91 96 72 91 97 100 90 98 96 69 45 63 67 80 87 84 68 57 77 98 98 100 84 100 100 100 100 100 100 100 86 56 59 63 69 100 100 100 100 90 100 100 100 100 86 58 59
100 100 100 100 100 100 100 100 93 100 99 97 84 47 86 100 93 87 100 99 93 71 70 84 100 99 95 94 96 100 100 99 82 62 50 54 86 69 100 100 100 98 100 95 100 100 100 98 82
100 100 100 100 98 93 100 100 96 100 100 96 77 58 66 100 100 100 100 100 100 100 100 86 100 100 99 84 91 100 100 100 100 100 81 76 76 91 85 100 100 100 100 100 100 100 100 100 100
100 100 100 100 89 100 100 100 98 100 100 98 83 92 74 95 100 100 97 95 100 100 100 100 100 100 100 79 91 100 100 100 100 100 100 74 64 72 92 88 96 100 100 96 98 100 100 81 85
100 100 100 100 99 96 96 96 100 100 100 100 100 100 98 89 100 100 99 100 100 100 100 100 100 100 100 100 100 100 100 100 100 98 100 86 63 66 74 80 87 88 100 100 92 65 67 69 69
91 100 100 100 100 89 78 80 90 100 100 100 100 100 100 100 99 100 100 100 100 100 100 100 100 100 100 100 100 100 100 100 100 100 100 100 75 74 78 72 65 80 82 99 100 100 89 74 78
94 94 100 100 100 90 79 81 100 100 100 100 92 79 69 100 100 100 99 100 99 100 100 100 100 100 100 100 100 100 100 100 100 100 100 100 95 85 75 72 69 56 62 67 78 100 100 100 94
68 92 100 100 100 100 100 72 99 100 100 100 100 100 100 97 100 100 100 100 100 100 100 100 100 100 100 94 98 100 100 100 98 100 100 100 100 100 100 92 78 74 63 68 70 76 100 100 100